Estación de Nueva Imperial
Ultimos registro cada 15 minutos 72
| N° | Estación | Fecha / Hora | Temperatura | Humedad | Lluvia | Velocidad | Dirección | Radiación | Presion |
| 72 | Nueva Imperial | 02-05-2026 17:45 | 12,4 | 69,7 | 0 | 0 | 220 | 13,1 | 1009,3 |
| 71 | Nueva Imperial | 02-05-2026 17:30 | 13 | 66,9 | 0,2 | 0 | 160 | 14,4 | 1009,1 |
| 70 | Nueva Imperial | 02-05-2026 17:15 | 14,6 | 60,8 | 0 | 0 | 173 | 28,1 | 1008,9 |
| 69 | Nueva Imperial | 02-05-2026 17:00 | 14,5 | 57,9 | 0,2 | 0 | 227 | 23,1 | 1008,7 |
| 68 | Nueva Imperial | 02-05-2026 16:45 | 15,2 | 57 | 0 | 0 | 237 | 26,9 | 1008,7 |
| 67 | Nueva Imperial | 02-05-2026 16:30 | 16,6 | 51,3 | 0,2 | 0 | 275 | 215,6 | 1008,8 |
| 66 | Nueva Imperial | 02-05-2026 16:15 | 18,5 | 50 | 0,2 | 0 | 66 | 70,6 | 1009,1 |
| 65 | Nueva Imperial | 02-05-2026 16:00 | 18,9 | 51,5 | 0 | 0 | 66 | 293,1 | 1009,3 |
| 64 | Nueva Imperial | 02-05-2026 15:45 | 19 | 50,1 | 0,2 | 0,3 | 55 | 323,1 | 1009,2 |
| 63 | Nueva Imperial | 02-05-2026 15:30 | 19,2 | 49,1 | 0,2 | 0,3 | 98 | 364,4 | 1009,1 |
| 62 | Nueva Imperial | 02-05-2026 15:15 | 18,3 | 48,1 | 0 | 0,3 | 104 | 398,1 | 1009 |
| 61 | Nueva Imperial | 02-05-2026 15:00 | 17,7 | 50,9 | 0,2 | 0,7 | 97 | 431,9 | 1009,1 |
| 60 | Nueva Imperial | 02-05-2026 14:45 | 18,4 | 46,8 | 0,2 | 0,3 | 21 | 474,4 | 1009,3 |
| 59 | Nueva Imperial | 02-05-2026 14:30 | 17,4 | 51,6 | 0,2 | 0,3 | 76 | 405,6 | 1009,4 |
| 58 | Nueva Imperial | 02-05-2026 14:15 | 18,7 | 52,8 | 0 | 0,7 | 90 | 518,1 | 1009,7 |
| 57 | Nueva Imperial | 02-05-2026 14:00 | 16,3 | 51,3 | 0,2 | 1 | 77 | 524,4 | 1009,8 |
| 56 | Nueva Imperial | 02-05-2026 13:45 | 16,5 | 52,9 | 0,2 | 1 | 97 | 535,6 | 1010,1 |
| 55 | Nueva Imperial | 02-05-2026 13:30 | 17,3 | 49,7 | 0,2 | 0,3 | 80 | 549,4 | 1010,3 |
| 54 | Nueva Imperial | 02-05-2026 13:15 | 15,6 | 53,7 | 0,2 | 1 | 91 | 556,9 | 1010,5 |
| 53 | Nueva Imperial | 02-05-2026 13:00 | 15,8 | 54,9 | 0,2 | 0,7 | 91 | 563,1 | 1010,7 |
| 52 | Nueva Imperial | 02-05-2026 12:45 | 15,6 | 57,8 | 0,2 | 0,7 | 101 | 569,4 | 1011,2 |
| 51 | Nueva Imperial | 02-05-2026 12:30 | 15,1 | 58,7 | 0,4 | 0,7 | 80 | 313,1 | 1011,5 |
| 50 | Nueva Imperial | 02-05-2026 12:15 | 15,8 | 61,6 | 0,2 | 1 | 86 | 431,9 | 1011,8 |
| 49 | Nueva Imperial | 02-05-2026 12:00 | 14,5 | 59,5 | 0,2 | 0,7 | 90 | 556,9 | 1012,2 |
| 48 | Nueva Imperial | 02-05-2026 11:45 | 15,7 | 64 | 0,4 | 0,3 | 49 | 548,1 | 1012,5 |
| 47 | Nueva Imperial | 02-05-2026 11:30 | 15,1 | 69,5 | 0,2 | 0,3 | 17 | 528,1 | 1012,9 |
| 46 | Nueva Imperial | 02-05-2026 11:15 | 14,7 | 70,1 | 0,4 | 0,3 | 289 | 468,1 | 1013,3 |
| 45 | Nueva Imperial | 02-05-2026 11:00 | 14 | 73,5 | 0,2 | 0,3 | 185 | 481,9 | 1013,3 |
| 44 | Nueva Imperial | 02-05-2026 10:45 | 11,5 | 77,4 | 0,4 | 0,7 | 91 | 460,6 | 1013,3 |
| 43 | Nueva Imperial | 02-05-2026 10:30 | 10,6 | 84,1 | 0,2 | 0,7 | 94 | 431,9 | 1013,6 |
| 42 | Nueva Imperial | 02-05-2026 10:15 | 8,9 | 88,2 | 0,4 | 0,3 | 77 | 353,1 | 1013,8 |
| 41 | Nueva Imperial | 02-05-2026 10:00 | 8,1 | 93,7 | 0,4 | 0,3 | 74 | 41,9 | 1013,9 |
| 40 | Nueva Imperial | 02-05-2026 09:45 | 7,5 | 96,6 | 0,4 | 0,3 | 95 | 154,4 | 1014,2 |
| 39 | Nueva Imperial | 02-05-2026 09:30 | 7,2 | 97,9 | 0,4 | 0 | 227 | 188,1 | 1014 |
| 38 | Nueva Imperial | 02-05-2026 09:15 | 5,8 | 98,4 | 0,4 | 0 | 253 | 263,1 | 1013,9 |
| 37 | Nueva Imperial | 02-05-2026 09:00 | 3 | 98,3 | 0 | 0 | 253 | 208,1 | 1014 |
| 36 | Nueva Imperial | 02-05-2026 08:45 | 1,5 | 98,6 | 0 | 0 | 260 | 171,9 | 1014,3 |
| 35 | Nueva Imperial | 02-05-2026 08:30 | 0,3 | 98,6 | 0 | 0,3 | 258 | 128,1 | 1014,2 |
| 34 | Nueva Imperial | 02-05-2026 08:15 | 0,2 | 98,6 | 0,2 | 0 | 251 | 101,9 | 1014,2 |
| 33 | Nueva Imperial | 02-05-2026 08:00 | -0,5 | 98,7 | 0 | 0 | 251 | 66,9 | 1014,4 |
| 32 | Nueva Imperial | 02-05-2026 07:45 | -1,2 | 98,8 | 0 | 0 | 251 | 28,1 | 1014,3 |
| 31 | Nueva Imperial | 02-05-2026 07:30 | -1,8 | 98,7 | 0 | 0 | 208 | 5,6 | 1014,4 |
| 30 | Nueva Imperial | 02-05-2026 07:15 | -1,8 | 98,6 | 0 | 0 | 240 | 0,6 | 1014,2 |
| 29 | Nueva Imperial | 02-05-2026 07:00 | -1,4 | 98,8 | 0 | 0 | 218 | 0,6 | 1014,6 |
| 28 | Nueva Imperial | 02-05-2026 06:45 | -1,7 | 98,6 | 0 | 0 | 149 | 0,6 | 1014,4 |
| 27 | Nueva Imperial | 02-05-2026 06:30 | -1,3 | 98,6 | 0 | 0 | 107 | 0,6 | 1014,6 |
| 26 | Nueva Imperial | 02-05-2026 06:15 | -1,5 | 98,6 | 0 | 0 | 79 | 0,6 | 1014,7 |
| 25 | Nueva Imperial | 02-05-2026 06:00 | -1,6 | 98,5 | 0 | 0 | 79 | 0,6 | 1015 |
| 24 | Nueva Imperial | 02-05-2026 05:45 | -1,4 | 98,4 | 0 | 0 | 79 | 0,6 | 1015 |
| 23 | Nueva Imperial | 02-05-2026 05:30 | -0,9 | 98,5 | 0 | 0 | 79 | 0,6 | 1015,2 |
| 22 | Nueva Imperial | 02-05-2026 05:15 | -1 | 98,4 | 0 | 0 | 79 | 0,6 | 1015,4 |
| 21 | Nueva Imperial | 02-05-2026 05:00 | -0,9 | 98,4 | 0 | 0 | 79 | 0,6 | 1015,5 |
| 20 | Nueva Imperial | 02-05-2026 04:45 | -0,6 | 98,3 | 0 | 0 | 79 | 0,6 | 1015,7 |
| 19 | Nueva Imperial | 02-05-2026 04:30 | -0,5 | 98,3 | 0 | 0 | 79 | 0,6 | 1015,8 |
| 18 | Nueva Imperial | 02-05-2026 04:15 | -0,7 | 98,1 | 0 | 0 | 79 | 0,6 | 1016 |
| 17 | Nueva Imperial | 02-05-2026 04:00 | -0,3 | 98,3 | 0 | 0 | 79 | 0,6 | 1016,3 |
| 16 | Nueva Imperial | 02-05-2026 03:45 | -0,2 | 98,2 | 0 | 0 | 79 | 0,6 | 1016,4 |
| 15 | Nueva Imperial | 02-05-2026 03:30 | -0,4 | 97,9 | 0 | 0 | 79 | 0,6 | 1016,6 |
| 14 | Nueva Imperial | 02-05-2026 03:15 | 0,1 | 97,9 | 0 | 0 | 79 | 0,6 | 1017 |
| 13 | Nueva Imperial | 02-05-2026 03:00 | 0,7 | 98 | 0 | 0 | 79 | 0,6 | 1017,1 |
| 12 | Nueva Imperial | 02-05-2026 02:45 | 0,2 | 97,8 | 0 | 0 | 79 | 0,6 | 1017,6 |
| 11 | Nueva Imperial | 02-05-2026 02:30 | 0,5 | 97,8 | 0 | 0 | 79 | 0,6 | 1017,8 |
| 10 | Nueva Imperial | 02-05-2026 02:15 | 0,6 | 97,5 | 0 | 0 | 79 | 0,6 | 1017,9 |
| 9 | Nueva Imperial | 02-05-2026 02:00 | 1,2 | 97,8 | 0 | 0 | 79 | 0,6 | 1018,1 |
| 8 | Nueva Imperial | 02-05-2026 01:45 | 1,1 | 97,6 | 0 | 0 | 79 | 0,6 | 1018,3 |
| 7 | Nueva Imperial | 02-05-2026 01:30 | 1,7 | 97,7 | 0 | 0 | 79 | 0,6 | 1018,4 |
| 6 | Nueva Imperial | 02-05-2026 01:15 | 1,3 | 97,4 | 0 | 0 | 79 | 0,6 | 1018,5 |
| 5 | Nueva Imperial | 02-05-2026 01:00 | 1,3 | 97,2 | 0 | 0 | 79 | 0,6 | 1018,7 |
| 4 | Nueva Imperial | 02-05-2026 00:45 | 1,6 | 97,3 | 0 | 0 | 79 | 0,6 | 1018,9 |
| 3 | Nueva Imperial | 02-05-2026 00:30 | 1,2 | 97,1 | 0 | 0 | 79 | 0,6 | 1018,9 |
| 2 | Nueva Imperial | 02-05-2026 00:15 | 1,8 | 97 | 0 | 0 | 79 | 0,6 | 1019,1 |
| 1 | Nueva Imperial | 02-05-2026 00:00 | 1,9 | 97 | 0 | 0 | 79 | 0,6 | 1019,1 |